Wind_Speed
6 4 7 2 4 2 1 1 3 3 2 3 5 4 6 9 7 4 3 16 24 36 36 38 40 39 37 36 35 34 32 31 29 27 26 25 23 22 21 19 17 15 13 12 12 11 10 9 9
5 3 3 1 4 7 2 2 5 4 6 11 9 5 6 8 15 19 9 19 27 41 42 37 40 39 38 37 36 35 33 30 29 27 26 25 24 22 20 19 17 15 14 13 12 11 10 9 9
2 2 2 3 3 10 3 4 6 5 12 3 6 5 5 4 5 6 7 23 30 38 42 42 42 40 37 36 36 35 34 32 30 29 27 26 24 22 21 19 17 15 14 13 12 10 10 10 9
4 2 2 3 11 1 1 4 4 10 9 3 8 10 5 3 18 12 13 25 36 34 37 43 44 42 39 37 36 36 35 33 31 29 28 26 24 23 21 18 17 15 14 13 12 11 10 9 9
1 2 3 3 4 4 6 2 11 14 11 11 9 10 13 10 27 13 8 27 35 35 33 40 44 43 41 39 37 36 35 34 31 30 28 26 24 22 21 19 17 15 14 14 13 12 11 10 9
3 1 4 9 9 5 9 10 3 5 8 13 12 14 5 20 24 13 6 20 32 33 33 38 45 43 42 41 39 38 36 34 32 30 28 26 24 23 22 20 18 17 15 14 13 13 12 12 10
4 3 8 6 5 8 11 10 8 3 8 6 12 9 10 22 19 11 5 13 20 27 30 31 39 43 41 41 39 39 37 34 32 29 27 25 24 23 22 21 19 17 15 15 13 12 12 11 11
3 3 7 6 10 14 4 5 15 5 13 7 7 7 16 21 14 7 3 9 15 20 25 29 30 33 32 30 39 37 36 34 31 28 27 25 24 22 21 20 19 18 16 16 15 13 13 12 11
2 7 10 11 12 9 3 2 1 2 12 6 5 5 11 20 8 6 2 7 10 15 19 22 26 26 27 27 30 37 35 34 31 29 28 26 19 18 18 19 19 19 17 15 15 14 14 13 12
8 8 14 7 12 9 5 2 4 3 10 15 10 12 13 18 11 11 6 10 12 15 15 18 21 23 24 24 24 29 29 29 28 26 24 23 19 18 17 17 20 19 17 16 15 15 14 14 11
4 10 6 8 6 3 4 3 2 2 16 11 14 17 17 12 11 10 9 10 13 12 17 16 17 24 24 22 21 22 23 24 26 28 26 22 20 20 18 15 14 16 18 14 14 14 14 14 12
6 3 4 9 4 2 5 1 5 9 12 12 12 17 9 11 11 8 8 7 8 16 22 20 22 26 26 21 23 25 25 29 30 29 28 25 24 21 18 16 15 15 14 15 14 13 14 15 14
5 2 5 7 8 6 7 11 9 15 11 12 12 12 13 13 11 9 10 6 6 11 17 26 26 28 26 29 25 31 35 36 34 31 28 26 22 22 20 20 18 17 15 14 13 14 13 14 13
0 3 8 9 9 7 8 16 6 7 4 10 14 13 10 9 9 7 6 11 8 10 12 17 29 31 35 36 39 29 39 32 31 28 27 28 26 24 21 21 20 19 18 15 14 14 13 13 12
1 6 6 12 8 7 6 16 12 4 3 10 19 20 10 5 8 8 8 6 9 8 12 12 17 30 41 43 44 42 41 37 33 30 30 29 29 27 25 21 22 20 19 19 16 14 14 12 11
1 1 5 1 4 2 5 16 2 9 8 7 7 9 6 4 8 7 5 9 10 10 12 16 9 13 30 33 37 43 47 39 37 36 32 30 32 30 27 24 25 24 21 17 14 13 13 12 11
1 2 2 5 6 5 1 6 6 8 11 9 11 8 8 4 6 6 5 8 13 14 15 19 15 11 17 29 33 35 38 39 42 36 38 32 34 28 28 30 29 27 20 17 15 13 14 12 11
1 1 2 4 5 6 12 14 11 17 13 12 9 11 8 7 7 7 4 9 13 14 13 11 21 13 11 23 25 20 23 35 38 42 39 36 37 30 31 32 27 26 21 16 15 14 14 11 11
3 4 6 5 7 7 12 18 18 17 16 17 14 10 9 7 7 3 4 7 10 15 18 15 9 12 12 10 12 18 22 23 29 41 39 37 32 25 27 29 25 26 24 20 18 14 14 12 11
4 5 7 7 6 11 14 20 18 17 16 17 16 14 9 5 3 3 4 8 11 15 21 22 19 13 9 17 31 16 12 18 27 27 38 31 27 19 22 27 26 27 20 18 17 17 12 12 14
5 7 6 9 8 12 12 12 5 7 11 10 12 9 5 6 9 4 8 11 12 15 18 22 25 20 15 16 13 21 16 15 12 20 22 31 26 20 29 35 32 26 22 17 19 19 18 13 12
8 5 6 8 8 8 6 8 10 14 6 5 4 8 10 4 3 8 9 12 15 19 20 22 27 27 19 17 12 15 18 19 22 19 22 29 33 35 34 34 36 26 19 19 19 18 18 14 13
6 1 6 8 12 11 13 7 4 3 6 1 6 7 9 6 6 7 10 16 18 18 22 24 26 32 29 25 19 16 18 22 24 21 22 28 34 33 36 35 33 26 22 20 19 18 20 19 16
3 4 8 4 4 6 5 7 4 4 8 5 10 9 6 7 6 7 11 14 18 20 19 21 27 29 30 23 22 20 22 23 22 21 22 23 23 26 34 35 30 25 22 21 20 20 21 23 18
3 3 6 3 4 4 4 9 11 10 11 15 16 13 9 5 7 9 11 14 20 24 27 25 23 29 30 24 22 21 25 27 26 26 23 21 23 25 36 31 28 26 23 22 20 20 20 20 18
4 4 5 5 4 7 10 9 3 6 10 13 13 8 10 10 11 13 11 14 22 25 25 27 29 28 27 25 26 23 26 26 25 26 25 26 26 27 30 32 28 26 22 21 20 18 17 16 17
4 7 2 7 9 8 7 12 13 15 8 5 5 3 9 10 15 13 15 17 19 20 25 26 30 29 27 27 28 30 31 27 29 30 30 32 28 25 32 29 27 21 21 21 20 18 18 17 18
9 8 4 2 4 6 6 17 12 15 11 5 8 12 13 18 17 12 10 17 23 20 22 26 29 28 28 29 29 31 30 33 33 32 31 32 28 27 29 26 22 21 22 22 21 17 17 17 19
5 7 4 3 4 4 8 6 3 9 13 11 13 10 19 19 16 14 13 19 21 26 31 21 29 31 30 28 29 31 33 32 31 31 32 30 29 31 29 26 23 23 22 22 20 18 18 19 21
8 11 10 6 6 7 11 18 13 16 12 7 14 19 19 15 14 13 15 20 25 26 25 25 29 32 30 29 29 31 34 32 30 32 30 30 30 27 26 24 23 24 24 23 22 20 19 22 23
Wind_Direction
351 1 83 55 256 288 230 159 280 214 264 245 286 240 249 276 223 232 26 186 169 164 169 177 179 180 177 172 169 167 165 165 168 169 168 169 168 169 170 168 166 165 164 161 161 155 149 145 140
358 54 35 155 227 242 236 218 215 250 292 303 277 245 241 261 243 263 271 176 174 169 172 174 182 184 180 177 173 171 169 168 169 170 171 172 171 172 174 172 169 168 169 167 162 158 153 145 143
99 134 218 206 195 234 204 204 175 300 311 271 312 281 282 303 304 270 276 185 172 171 172 177 182 185 185 180 177 174 172 172 171 172 174 176 175 175 177 177 174 176 175 171 167 161 157 156 149
188 140 100 237 225 262 241 199 282 321 323 249 321 286 307 10 333 299 296 174 168 174 173 178 182 185 187 185 181 177 175 175 174 177 179 180 180 180 181 182 180 183 180 178 173 171 167 164 159
92 125 213 237 244 194 182 315 338 324 306 299 336 313 308 350 334 309 200 175 167 174 175 177 183 186 187 188 186 183 180 179 180 182 184 186 186 185 186 186 189 191 191 187 181 180 178 176 173
159 179 217 239 247 207 222 201 290 332 316 308 333 327 334 345 348 352 180 183 171 173 174 176 184 189 190 190 189 188 186 185 185 188 191 191 191 191 191 192 195 198 197 198 194 190 191 186 181
205 200 231 211 265 245 251 161 268 287 303 323 343 317 332 355 351 349 138 177 184 176 173 177 182 189 194 195 194 193 192 192 192 195 197 199 199 199 198 197 201 205 207 205 205 202 205 201 193
199 201 215 223 236 252 217 210 175 261 288 325 347 346 342 343 345 359 139 156 178 181 179 177 182 188 193 200 200 198 198 198 199 201 204 206 206 207 210 208 208 211 213 215 216 214 212 213 210
196 226 232 229 225 241 212 159 116 290 273 292 296 345 331 344 338 337 195 178 180 185 185 186 186 189 193 198 204 203 205 204 205 206 210 212 207 212 215 218 220 221 221 222 224 225 221 219 222
210 233 224 222 237 234 234 317 9 14 295 279 281 304 327 334 344 340 283 209 195 200 199 194 192 195 196 200 202 203 207 209 209 210 213 210 209 211 209 218 226 231 232 232 232 232 231 226 224
187 241 228 221 243 308 272 260 197 176 278 288 305 319 323 325 337 338 341 245 219 208 214 209 204 204 204 205 209 207 207 209 211 213 212 211 213 218 217 218 222 227 236 230 231 227 226 229 226
235 225 261 248 275 274 253 299 253 245 254 281 290 300 312 326 323 325 332 348 241 205 225 217 220 219 217 215 219 218 213 215 216 217 218 215 218 221 216 218 220 224 228 229 226 228 225 230 232
230 196 274 275 271 252 250 249 254 263 276 281 292 302 312 311 312 329 306 328 338 258 230 227 230 232 227 227 226 224 224 222 224 223 223 221 220 224 225 227 226 228 230 231 233 235 231 235 235
176 268 281 280 264 256 260 270 234 266 358 317 296 314 355 328 334 335 321 308 314 336 302 251 231 234 230 236 232 230 233 230 227 227 227 228 230 232 231 233 234 236 236 233 231 236 235 235 235
282 276 261 252 258 246 253 262 251 62 19 243 266 275 288 0 345 2 13 333 303 351 349 315 268 242 234 229 234 237 237 234 232 233 235 236 238 240 240 242 242 242 239 237 238 237 239 235 234
323 248 248 150 319 62 195 255 188 13 2 311 310 312 294 298 318 323 353 347 3 325 334 347 306 274 229 240 241 234 238 238 239 237 238 242 241 240 243 243 248 246 240 231 226 226 233 231 229
78 223 319 310 348 342 218 288 283 326 329 306 308 313 302 316 293 299 345 360 0 1 263 310 353 322 294 270 247 245 237 237 241 244 243 243 250 241 251 247 246 247 239 229 222 220 225 225 228
235 238 234 286 322 308 292 284 290 300 291 277 281 297 277 280 254 277 351 351 344 344 346 261 323 8 309 265 261 251 239 238 240 244 247 248 249 244 244 244 244 238 232 226 221 218 222 219 225
231 237 267 277 292 306 293 292 296 286 270 264 262 262 272 260 255 289 354 346 346 338 341 345 324 332 337 249 245 239 240 237 236 240 244 248 251 257 246 241 234 232 228 225 224 214 217 214 217
214 257 281 284 272 299 293 291 283 276 267 260 254 239 239 213 256 282 320 337 337 331 331 330 330 341 308 292 248 245 245 239 243 245 240 236 239 253 287 256 232 229 224 225 220 209 205 208 203
242 256 285 292 313 287 298 284 239 231 279 251 242 236 270 282 303 323 336 339 344 339 331 327 324 313 296 278 268 246 246 246 233 229 227 228 231 208 226 242 242 228 219 221 218 213 207 196 203
276 217 259 276 298 306 336 287 275 280 297 223 308 315 302 292 300 316 329 335 344 331 322 321 327 319 308 301 275 254 246 243 241 230 235 231 223 223 225 236 233 224 217 218 219 216 212 195 191
260 215 267 273 277 293 260 257 271 209 254 342 296 285 291 287 314 329 339 334 325 323 318 317 316 319 313 309 298 275 255 249 250 247 236 242 233 231 235 226 221 221 217 224 217 211 212 209 202
140 259 271 228 248 247 239 241 197 221 203 242 309 297 302 308 328 330 328 326 323 321 314 311 311 307 310 301 298 282 258 252 250 234 230 222 225 223 221 215 217 218 218 218 217 219 216 211 210
166 284 299 256 208 268 165 284 255 217 233 280 295 295 312 307 316 321 323 325 327 320 312 306 298 294 298 292 290 283 268 258 246 244 238 217 213 207 213 209 211 214 218 216 214 214 213 208 210
218 245 256 278 266 290 287 255 238 212 271 286 286 279 297 312 329 321 320 322 326 324 316 308 302 295 293 282 286 281 271 261 255 248 237 233 223 223 226 212 208 211 214 212 209 206 202 205 211
158 218 330 262 263 273 246 262 270 268 287 306 301 275 301 315 323 315 319 322 324 325 322 317 308 298 289 285 287 282 276 257 248 246 245 236 231 217 223 210 205 204 205 200 198 194 197 203 205
234 147 202 195 258 265 259 277 266 288 298 324 318 325 336 326 318 300 298 316 322 322 313 326 315 297 289 281 274 270 265 260 248 243 236 230 223 219 215 207 196 193 192 189 189 195 195 194 200
195 211 196 243 232 270 296 266 233 278 292 303 314 321 323 319 313 296 292 306 311 318 309 308 312 301 292 284 273 264 258 250 241 236 233 224 219 224 216 204 188 183 181 182 183 189 188 189 193
247 244 221 231 203 234 275 277 272 274 293 305 305 315 317 314 309 291 289 305 309 314 308 307 309 301 293 291 278 263 256 247 233 228 224 216 210 212 205 191 179 177 179 181 184 186 188 188 190
Height
780 780 774 780 795 794 802 795 789 783 778 764 760 762 761 753 757 766 733 734 739 740 749 756 762 767 769 770 772 775 779 782 785 788 789 792 794 796 798 800 802 804 806 806 807 808 809 810 811
779 778 779 786 796 800 800 790 786 778 768 762 759 759 762 756 740 732 732 735 738 735 745 755 761 766 768 771 772 775 777 781 784 788 791 792 793 796 800 801 802 804 806 806 807 808 809 810 810
779 780 782 782 792 798 799 787 776 771 764 765 762 754 752 748 739 733 730 731 738 739 743 749 758 765 771 772 774 775 776 780 782 786 789 792 794 796 799 802 803 805 805 807 808 809 810 810 811
781 781 785 792 794 796 787 778 776 771 761 761 759 763 747 745 742 735 733 731 732 743 744 747 755 762 769 773 774 775 776 779 781 785 788 791 792 795 798 802 803 805 806 807 807 808 809 810 810
779 780 793 796 795 787 774 771 771 772 770 761 760 760 753 743 740 732 730 731 732 741 747 750 755 760 764 769 774 776 776 778 781 784 787 789 793 795 797 800 803 805 806 806 806 807 808 810 810
781 781 795 796 791 778 769 763 771 771 767 762 759 757 751 743 738 733 732 736 735 740 744 747 754 760 763 766 769 774 776 778 780 783 786 789 791 794 796 798 800 802 803 806 806 806 807 807 808
779 784 786 796 792 783 771 761 772 769 768 763 757 761 751 741 741 737 735 739 743 743 745 750 753 759 764 767 769 771 775 778 780 783 786 789 792 794 795 796 799 802 804 805 806 807 809 809 808
775 780 788 788 788 784 765 761 753 766 766 759 757 765 759 748 745 741 741 741 744 747 750 750 755 760 764 768 770 772 775 778 781 783 787 790 792 795 798 799 799 801 802 804 805 805 806 808 809
775 781 783 782 782 773 762 761 760 756 762 760 759 757 754 751 749 746 744 743 746 749 750 753 756 760 764 768 770 772 775 778 781 783 786 789 792 795 797 799 800 801 802 802 804 805 805 806 808
773 777 773 766 763 765 762 762 764 763 764 760 759 757 754 751 748 746 743 743 744 748 750 753 756 759 763 767 769 771 774 777 779 781 784 787 790 791 794 797 798 801 802 801 800 802 804 805 807
771 774 771 763 761 762 764 765 761 762 767 758 759 754 750 747 745 743 740 742 744 746 749 751 754 756 761 765 769 770 771 774 775 777 780 783 785 788 791 793 795 798 799 800 800 801 803 804 804
776 772 771 764 763 765 768 764 763 760 755 754 754 752 749 746 745 746 744 738 744 742 747 747 752 755 759 764 765 767 768 768 770 773 775 778 780 784 786 788 791 794 797 797 797 798 797 799 799
775 774 772 767 766 763 762 763 760 753 749 749 752 750 746 746 742 741 742 739 740 743 743 743 748 752 757 760 762 763 762 762 766 769 771 774 777 780 782 784 786 788 791 792 794 795 794 795 796
775 775 771 766 762 758 761 756 757 750 748 751 749 750 745 744 744 741 740 738 739 740 742 743 743 744 746 754 757 758 760 759 762 765 767 769 773 775 779 781 783 783 785 787 787 790 791 791 792
775 776 770 765 761 757 753 757 756 756 750 750 744 746 746 747 744 742 739 738 736 739 739 740 742 744 743 745 747 754 754 754 757 760 763 765 768 772 775 778 779 780 781 782 782 785 787 787 786
776 779 774 765 763 756 757 755 757 756 755 751 750 750 744 742 746 742 740 739 737 735 736 740 739 737 742 740 741 745 746 751 754 753 757 759 760 765 770 770 775 777 777 776 778 781 784 783 784
780 779 779 770 761 762 763 765 757 757 757 754 750 747 743 739 743 741 736 737 737 734 726 737 737 731 730 736 741 742 744 746 747 750 750 753 752 757 762 765 769 773 775 773 774 775 779 779 780
781 780 779 777 764 764 762 761 758 753 754 751 749 743 742 740 739 741 737 737 735 737 736 730 733 733 736 739 739 735 742 740 740 742 744 747 747 745 754 759 766 769 768 770 770 771 774 773 777
777 778 778 771 764 768 761 760 754 749 747 745 742 740 740 739 739 737 736 736 736 736 733 735 732 726 733 739 737 737 731 732 734 734 737 741 743 750 753 754 760 764 763 764 764 767 770 770 774
778 777 773 770 766 766 759 755 749 742 739 736 736 736 737 737 739 736 736 735 734 733 731 730 728 724 732 735 741 729 727 724 726 730 731 734 739 745 753 761 757 757 759 760 761 763 766 766 770
773 775 774 774 768 763 761 745 744 736 732 732 731 730 729 731 730 731 731 733 731 729 730 727 725 727 730 734 727 726 721 721 723 724 726 726 732 733 736 747 759 751 752 754 756 756 760 760 765
775 769 770 773 774 771 765 756 741 734 732 732 730 728 726 730 732 731 729 730 727 727 728 724 720 717 718 719 717 715 714 714 716 717 720 720 722 723 726 737 751 745 745 747 749 752 756 757 760
768 769 770 771 771 772 760 766 737 735 733 731 728 727 727 728 730 729 729 731 730 729 723 719 715 710 706 705 706 708 708 709 710 712 713 714 717 717 725 732 737 735 737 740 744 746 749 753 756
767 769 768 775 771 767 756 758 734 730 726 728 724 722 726 727 729 732 733 734 729 726 723 718 711 708 703 702 701 702 703 704 705 703 708 706 712 716 719 723 722 726 728 733 736 742 744 748 752
767 770 770 767 761 753 758 756 734 728 725 722 721 720 723 726 728 729 729 726 723 719 716 714 713 705 700 697 694 696 697 696 697 694 697 701 705 708 709 708 712 719 721 725 730 736 742 744 749
766 768 774 779 762 749 747 745 723 722 722 722 720 723 722 721 721 722 723 722 718 715 714 710 706 701 695 693 688 688 692 689 689 686 687 692 695 697 701 701 705 711 714 720 726 732 738 742 745
769 770 770 769 765 768 744 727 721 714 718 718 718 720 718 719 719 719 716 717 716 712 708 703 697 693 689 682 680 679 680 680 681 679 677 682 688 688 692 697 701 703 709 716 723 729 732 738 741
760 764 772 777 775 764 736 730 723 717 716 716 715 715 713 713 712 714 715 712 705 702 701 694 691 688 685 682 679 675 671 669 670 672 669 675 678 682 686 693 692 697 706 712 718 725 729 733 736
762 763 768 769 768 758 745 718 713 715 713 715 714 712 710 708 706 706 707 705 702 697 691 687 686 681 678 676 670 667 663 661 661 661 662 665 671 676 680 686 687 694 701 709 714 721 725 729 733
755 755 757 761 756 757 752 716 707 710 711 714 712 707 705 704 702 701 700 698 694 692 686 676 674 671 668 663 659 657 654 652 652 653 655 658 662 667 676 680 682 689 697 704 711 716 721 725 729